This is the latest recevied weather packets stored in our database for station/object WW1TA. If no packets are shown the sender has not sent any weather packets the latest 1 day(s).
| Time | Temp. | Humidity | Pressure | Rain* | Wind** | Luminosity | Snow |
|---|---|---|---|---|---|---|---|
| 1778100147 | 28.89° C | 57% | 1016.4 hPa | 0 mm | - | 503 W/m² | - |
| 1778099536 | 28.89° C | 55% | 1016.5 hPa | 0 mm | - | 560 W/m² | - |
| 1778098317 | 28.33° C | 58% | 1016.7 hPa | 0 mm | - | 587 W/m² | - |
| 1778095285 | 28.89° C | 58% | 1017.1 hPa | 0 mm | - | 580 W/m² | - |
| 1778094982 | 29.44° C | 57% | 1017.1 hPa | 0 mm | - | 785 W/m² | - |
| 1778091030 | 29.44° C | 58% | 1018.1 hPa | 0 mm | - | 746 W/m² | - |
| 1778090120 | 30° C | 58% | 1018.4 hPa | 0 mm | - | 637 W/m² | - |
| 1778086782 | 29.44° C | 56% | 1018.8 hPa | 0 mm | - | 538 W/m² | - |
| 1778086481 | 29.44° C | 58% | 1018.7 hPa | 0 mm | - | 690 W/m² | - |
| 1778084659 | 28.33° C | 56% | 1018.8 hPa | 0 mm | - | 650 W/m² | - |
| 1778084356 | 27.78° C | 57% | 1018.8 hPa | 0 mm | - | 656 W/m² | - |
| 1778084054 | 27.78° C | 57% | 1019 hPa | 0 mm | - | 500 W/m² | - |
| 1778083141 | 27.78° C | 54% | 1019.2 hPa | 0 mm | - | 461 W/m² | - |
| 1778081720 | 28.33° C | 52% | 1019 hPa | 0 mm | - | 596 W/m² | - |
| 1778080207 | 27.22° C | 52% | 1019 hPa | 0 mm | - | 680 W/m² | - |
| 1778079903 | 27.78° C | 52% | 1019.2 hPa | 0 mm | - | 563 W/m² | - |
| 1778079600 | 27.78° C | 53% | 1019.1 hPa | 0 mm | - | 681 W/m² | - |
| 1778079296 | 27.78° C | 53% | 1019.2 hPa | 0 mm | - | 664 W/m² | - |
| 1778077179 | 26.67° C | 61% | 1019 hPa | 0 mm | - | 493 W/m² | - |
| 1778076877 | 26.11° C | 63% | 1019 hPa | 0 mm | - | 566 W/m² | - |
| 1778075666 | 26.11° C | 63% | 1018.6 hPa | 0 mm | - | 546 W/m² | - |
| 1778075362 | 25° C | 65% | 1018.5 hPa | 0 mm | - | 508 W/m² | - |
| 1778075058 | 25° C | 65% | 1018.9 hPa | 0 mm | - | 328 W/m² | - |
| 1778074452 | 24.44° C | 66% | 1018.9 hPa | 0 mm | - | 111 W/m² | - |
| 1778073846 | 23.89° C | 70% | 1018.8 hPa | 0 mm | - | 66 W/m² | - |
* Rain latest hour (hover to see other rain measurements)
** Current wind speed in m/s (hover to see current wind gust speed)